World > North America > United States > Texas > Marshall Ford

Hourly Marshall Ford, TX Regional Weather

Feedback E-mail the Weather

Quick WX

Marshall Ford, TX Weather Maps

°F °C°F °C
Marshall Ford Weather Map
UTC Time: 8/17/2022, 01:15
Your Time:

Marshall Ford, TX Regional Weather

Expires:202208170200;;168608
ASUS44 KSJT 170115
RWRSJT
WEST CENTRAL TEXAS REGIONAL WEATHER ROUNDUP
NATIONAL WEATHER SERVICE SAN ANGELO TX
800 PM CDT TUE AUG 16 2022

NOTE: "FAIR" INDICATES FEW OR NO CLOUDS BELOW 12,000 FEET WITH NO
SIGNIFICANT WEATHER AND/OR OBSTRUCTIONS TO VISIBILITY.


TXZ145-158-159-173-191-192-194-205-207-220-223-170200-
CENTRAL AND SOUTH CENTRAL TEXAS
  
CITY           SKY/WX    TMP DP  RH WIND       PRES   REMARKS
AUSTIN/BERGSTM MOCLDY    94  67  41 SE13      29.87R                  
WACO           PTCLDY    94  64  37 S5        29.87S                  
HILLSBORO      PTCLDY    95  61  32 SE7       29.88S                  
TEMPLE         MOCLDY    94  66  39 S8        29.89F                  
KILLEEN-GRAY   MOCLDY    94  62  34 S7        29.87S                  
FORT HOOD      MOCLDY    94  63  35 SE6       29.89F                  
GEORGETOWN     MOCLDY    95  65  37 S3        29.91S                  
LAGO VISTA     FAIR      93  64  37 CALM      29.93S                  
SAN MARCOS     MOCLDY    93  69  45 SE12      29.89R                  
NEW BRAUNFELS  PTCLDY    95  68  41 SE17G24   29.87S                  
RANDOLPH AFB   PTCLDY    91  69  47 S14       29.87R                  
SAN ANTONIO    MOCLDY    92  69  47 SE14      29.89S                  
STINSON        PTCLDY    92  70  48 SE12      29.86S                  
PLEASANTON     NOT AVBL                                               
LA GRANGE      MOCLDY    92  72  51 S12       29.86S                  
GIDDINGS       MOCLDY    92  69  46 S6        29.89S                  
$$


SKY/WX - Weather  TMP - Temperature  DP - Dew Point  RH - Humidity
WIND - Wind Direction/Speed PRES - Barometric Pressure VSB - Visibility
WCI - Wind Chill Index E13G22 Wind - East Wind 13 mph/Gusts of 22 mph

Trending Headlines

Marshall Ford Radar Loop



Marshall Ford Quick Facts


National Two Day Weather Forecast


E-mail the Marshall Ford Weather Forecast

Voice your opinion or tell us about page issues...